SWA3048 KBNA-KGSP

Flight info

Callsign SWA3048
Flight time 0h 43m
Altitude 33000
Route TAZMO4 BURME DAJPI RCTOR3
Aircraft B738/M-SDE2E3FGHIRWXY/LB1

Departure

Time 2026-04-25 06:55
Airport Nashville International Airport (KBNA)

Arrival

Time 2026-04-25 07:38
Airport Greenville-Spartanburg International Airport (KGSP)
Time Latitude Longitude Altitude Speed Heading
2026-04-25 06:40 36.12793 -86.67005 572 ft 0 kts 41°
2026-04-25 06:47 36.12781 -86.67019 572 ft 4 kts 46°
2026-04-25 06:47 36.12764 -86.67045 571 ft 4 kts 60°
2026-04-25 06:48 36.12755 -86.67074 568 ft 4 kts 96°
2026-04-25 06:48 36.12759 -86.67090 568 ft 0 kts 130°
2026-04-25 06:50 36.12757 -86.67088 568 ft 2 kts 130°
2026-04-25 06:50 36.12728 -86.67046 568 ft 12 kts 130°
2026-04-25 06:50 36.12655 -86.66939 570 ft 20 kts 130°
2026-04-25 06:51 36.12577 -86.66896 570 ft 16 kts 199°
2026-04-25 06:51 36.12451 -86.66948 575 ft 23 kts 158°
2026-04-25 06:51 36.12342 -86.66773 573 ft 29 kts 110°
2026-04-25 06:51 36.12288 -86.66554 571 ft 20 kts 93°
2026-04-25 06:52 36.12388 -86.66464 566 ft 19 kts 17°
2026-04-25 06:52 36.12513 -86.66416 572 ft 18 kts 17°
2026-04-25 06:52 36.12633 -86.66369 569 ft 18 kts 17°
2026-04-25 06:52 36.12748 -86.66322 563 ft 17 kts 19°
2026-04-25 06:53 36.12860 -86.66276 563 ft 17 kts 18°
2026-04-25 06:53 36.12973 -86.66231 558 ft 19 kts 18°
2026-04-25 06:53 36.13113 -86.66176 557 ft 24 kts 17°
2026-04-25 06:53 36.13281 -86.66111 557 ft 27 kts 17°
2026-04-25 06:54 36.13368 -86.66062 548 ft 12 kts 58°
2026-04-25 06:54 36.13349 -86.65954 549 ft 14 kts 137°
2026-04-25 06:54 36.13302 -86.65959 549 ft 5 kts 198°
2026-04-25 06:54 36.13259 -86.65976 549 ft 8 kts 197°
2026-04-25 06:55 36.13117 -86.66031 556 ft 51 kts 198°
2026-04-25 06:55 36.12528 -86.66264 569 ft 124 kts 198°
2026-04-25 06:55 36.11541 -86.66681 778 ft 166 kts 201°
2026-04-25 06:55 36.10423 -86.67209 1499 ft 174 kts 203°
2026-04-25 06:56 36.09289 -86.67635 2416 ft 171 kts 194°
2026-04-25 06:56 36.08056 -86.67594 3097 ft 190 kts 166°
2026-04-25 06:56 36.06784 -86.67009 3784 ft 199 kts 160°
2026-04-25 06:56 36.05501 -86.66334 4605 ft 204 kts 161°
2026-04-25 06:57 36.04071 -86.65806 4880 ft 226 kts 169°
2026-04-25 06:57 36.02469 -86.65317 5171 ft 245 kts 168°
2026-04-25 06:57 36.00777 -86.64783 5599 ft 260 kts 167°
2026-04-25 06:57 35.99112 -86.63719 6034 ft 280 kts 139°
2026-04-25 06:58 35.98037 -86.61714 6689 ft 288 kts 111°
2026-04-25 06:58 35.97719 -86.59269 7004 ft 291 kts 92°
2026-04-25 06:58 35.97678 -86.56742 7004 ft 295 kts 91°
2026-04-25 06:58 35.97645 -86.54210 7004 ft 294 kts 92°
2026-04-25 06:59 35.97599 -86.51693 7010 ft 292 kts 92°
2026-04-25 06:59 35.97545 -86.49187 7011 ft 291 kts 92°
2026-04-25 06:59 35.97546 -86.46724 7004 ft 292 kts 83°
2026-04-25 06:59 35.98050 -86.44267 7279 ft 299 kts 72°
2026-04-25 07:00 35.98687 -86.41806 8159 ft 300 kts 72°
2026-04-25 07:00 35.99324 -86.39341 9064 ft 302 kts 72°
2026-04-25 07:00 35.99959 -86.36847 9864 ft 307 kts 72°
2026-04-25 07:00 36.00601 -86.34290 10432 ft 320 kts 72°
2026-04-25 07:01 36.01281 -86.31553 10625 ft 346 kts 72°
2026-04-25 07:01 36.02006 -86.28608 10833 ft 369 kts 72°
2026-04-25 07:01 36.02763 -86.25520 11356 ft 380 kts 72°
2026-04-25 07:01 36.03521 -86.22410 12090 ft 384 kts 72°
2026-04-25 07:02 36.04293 -86.19238 12871 ft 387 kts 72°
2026-04-25 07:02 36.05074 -86.16028 13649 ft 392 kts 72°
2026-04-25 07:02 36.05862 -86.12786 14353 ft 395 kts 72°
2026-04-25 07:02 36.06657 -86.09506 15086 ft 399 kts 73°
2026-04-25 07:03 36.07145 -86.06116 15771 ft 405 kts 91°
2026-04-25 07:03 36.06906 -86.02636 16539 ft 407 kts 96°
2026-04-25 07:03 36.06606 -85.99139 17249 ft 411 kts 96°
2026-04-25 07:03 36.06320 -85.95595 17926 ft 416 kts 96°
2026-04-25 07:04 36.06054 -85.92062 18524 ft 420 kts 95°
2026-04-25 07:04 36.05794 -85.88435 19114 ft 424 kts 95°
2026-04-25 07:04 36.05537 -85.84782 19707 ft 428 kts 96°
2026-04-25 07:04 36.05277 -85.81089 20285 ft 432 kts 96°
2026-04-25 07:05 36.05017 -85.77419 20857 ft 436 kts 96°
2026-04-25 07:05 36.04755 -85.73672 21405 ft 440 kts 96°
2026-04-25 07:05 36.04492 -85.69885 21946 ft 444 kts 96°
2026-04-25 07:05 36.04225 -85.66054 22476 ft 448 kts 96°
2026-04-25 07:06 36.03956 -85.62197 22991 ft 452 kts 96°
2026-04-25 07:06 36.03683 -85.58312 23496 ft 456 kts 97°
2026-04-25 07:06 36.03407 -85.54393 23919 ft 459 kts 97°
2026-04-25 07:06 36.03126 -85.50439 24345 ft 462 kts 97°
2026-04-25 07:07 36.02846 -85.46512 24744 ft 466 kts 97°
2026-04-25 07:07 36.02558 -85.42496 25143 ft 469 kts 97°
2026-04-25 07:07 36.02267 -85.38450 25550 ft 473 kts 97°
2026-04-25 07:07 36.01973 -85.34388 25940 ft 476 kts 97°
2026-04-25 07:08 36.01679 -85.30343 26343 ft 479 kts 97°
2026-04-25 07:08 36.01378 -85.26220 26733 ft 483 kts 97°
2026-04-25 07:08 36.01074 -85.22079 27102 ft 486 kts 97°
2026-04-25 07:08 36.00766 -85.17907 27461 ft 489 kts 97°
2026-04-25 07:09 36.00455 -85.13700 27817 ft 492 kts 97°
2026-04-25 07:09 36.00142 -85.09476 28160 ft 495 kts 97°
2026-04-25 07:09 35.99828 -85.05280 28516 ft 497 kts 97°
2026-04-25 07:09 35.99500 -85.01024 28945 ft 497 kts 97°
2026-04-25 07:10 35.99158 -84.96764 29448 ft 496 kts 98°
2026-04-25 07:10 35.98810 -84.92515 29933 ft 496 kts 98°
2026-04-25 07:10 35.98457 -84.88248 29922 ft 501 kts 98°
2026-04-25 07:11 35.97756 -84.79768 29928 ft 495 kts 98°
2026-04-25 07:11 35.97056 -84.71324 29940 ft 494 kts 98°
2026-04-25 07:12 35.96353 -84.62912 29938 ft 495 kts 98°
2026-04-25 07:12 35.95279 -84.50174 29931 ft 497 kts 98°
2026-04-25 07:13 35.94563 -84.41781 29858 ft 483 kts 96°
2026-04-25 07:13 35.94215 -84.37722 29874 ft 468 kts 95°
2026-04-25 07:13 35.93877 -84.33798 29914 ft 465 kts 95°
2026-04-25 07:14 35.93187 -84.25813 29916 ft 469 kts 95°
2026-04-25 07:14 35.92490 -84.17812 29924 ft 473 kts 95°
2026-04-25 07:15 35.91776 -84.09699 29920 ft 476 kts 95°
2026-04-25 07:15 35.91055 -84.01562 29917 ft 477 kts 95°
2026-04-25 07:16 35.90332 -83.93473 29913 ft 478 kts 95°
2026-04-25 07:16 35.89598 -83.85320 29912 ft 478 kts 95°
2026-04-25 07:17 35.88858 -83.77167 29917 ft 477 kts 95°
2026-04-25 07:17 35.88114 -83.69026 29914 ft 477 kts 95°
2026-04-25 07:18 35.87368 -83.60931 29913 ft 477 kts 95°
2026-04-25 07:18 35.86613 -83.52791 29913 ft 477 kts 95°
2026-04-25 07:19 35.85853 -83.44660 29868 ft 477 kts 95°
2026-04-25 07:19 35.85469 -83.40567 29038 ft 482 kts 96°
2026-04-25 07:19 35.85087 -83.36519 28275 ft 478 kts 96°
2026-04-25 07:20 35.84704 -83.32482 27700 ft 471 kts 96°
2026-04-25 07:20 35.84324 -83.28491 27085 ft 466 kts 96°
2026-04-25 07:20 35.83946 -83.24531 26486 ft 461 kts 96°
2026-04-25 07:20 35.83571 -83.20615 25891 ft 457 kts 96°
2026-04-25 07:21 35.83199 -83.16743 25303 ft 453 kts 96°
2026-04-25 07:21 35.82829 -83.12903 24723 ft 449 kts 95°
2026-04-25 07:21 35.82462 -83.09101 24127 ft 445 kts 95°
2026-04-25 07:21 35.82095 -83.05324 23538 ft 442 kts 95°
2026-04-25 07:22 35.81731 -83.01575 22857 ft 439 kts 96°
2026-04-25 07:22 35.81368 -82.97858 22239 ft 435 kts 95°
2026-04-25 07:22 35.81011 -82.94218 21655 ft 430 kts 96°
2026-04-25 07:22 35.80652 -82.90563 21075 ft 426 kts 96°
2026-04-25 07:23 35.80298 -82.86959 20497 ft 422 kts 96°
2026-04-25 07:23 35.79944 -82.83383 19943 ft 419 kts 96°
2026-04-25 07:23 35.79592 -82.79827 19376 ft 416 kts 96°
2026-04-25 07:23 35.79241 -82.76296 18802 ft 413 kts 96°
2026-04-25 07:24 35.78891 -82.72789 18228 ft 411 kts 96°
2026-04-25 07:24 35.78547 -82.69342 17613 ft 409 kts 96°
2026-04-25 07:24 35.77962 -82.65928 16993 ft 407 kts 112°
2026-04-25 07:24 35.76521 -82.62972 16489 ft 401 kts 130°
2026-04-25 07:25 35.74476 -82.60685 15946 ft 395 kts 145°
2026-04-25 07:25 35.72234 -82.58760 15419 ft 391 kts 147°
2026-04-25 07:25 35.69990 -82.56883 14892 ft 388 kts 147°
2026-04-25 07:25 35.67758 -82.55014 14352 ft 385 kts 147°
2026-04-25 07:26 35.65558 -82.53154 13835 ft 382 kts 147°
2026-04-25 07:26 35.63406 -82.51320 13251 ft 379 kts 147°
2026-04-25 07:26 35.61254 -82.49476 12661 ft 376 kts 147°
2026-04-25 07:26 35.59123 -82.47644 12125 ft 371 kts 146°
2026-04-25 07:27 35.57010 -82.45829 11610 ft 367 kts 147°
2026-04-25 07:27 35.54930 -82.44042 11256 ft 359 kts 147°
2026-04-25 07:27 35.53590 -82.42891 11165 ft 350 kts 147°
2026-04-25 07:27 35.51626 -82.41206 11010 ft 338 kts 147°
2026-04-25 07:28 35.49707 -82.39625 10807 ft 327 kts 152°
2026-04-25 07:28 35.47677 -82.38415 10520 ft 321 kts 158°
2026-04-25 07:28 35.45627 -82.37379 10257 ft 315 kts 160°
2026-04-25 07:28 35.43631 -82.36399 10000 ft 310 kts 160°
2026-04-25 07:29 35.41647 -82.35411 9858 ft 301 kts 160°
2026-04-25 07:29 35.39744 -82.34446 9850 ft 288 kts 159°
2026-04-25 07:29 35.37912 -82.33508 9377 ft 286 kts 159°
2026-04-25 07:29 35.36129 -82.32587 9060 ft 278 kts 159°
2026-04-25 07:30 35.34390 -82.31684 8804 ft 270 kts 159°
2026-04-25 07:30 35.32663 -82.30790 8698 ft 268 kts 158°
2026-04-25 07:30 35.30942 -82.29891 8327 ft 270 kts 159°
2026-04-25 07:30 35.29227 -82.28992 8104 ft 272 kts 159°
2026-04-25 07:31 35.27512 -82.28006 7860 ft 272 kts 154°
2026-04-25 07:31 35.25830 -82.26903 7504 ft 272 kts 153°
2026-04-25 07:31 35.24204 -82.25812 7143 ft 268 kts 153°
2026-04-25 07:31 35.22565 -82.24716 6702 ft 267 kts 153°
2026-04-25 07:32 35.20942 -82.23639 6382 ft 265 kts 153°
2026-04-25 07:32 35.19320 -82.22570 6106 ft 264 kts 153°
2026-04-25 07:32 35.17697 -82.21506 5831 ft 264 kts 153°
2026-04-25 07:32 35.16090 -82.20455 5561 ft 265 kts 154°
2026-04-25 07:33 35.14463 -82.19394 5281 ft 264 kts 154°
2026-04-25 07:33 35.12849 -82.18344 5012 ft 262 kts 154°
2026-04-25 07:33 35.11263 -82.17312 4738 ft 254 kts 154°
2026-04-25 07:33 35.09730 -82.16315 4472 ft 245 kts 154°
2026-04-25 07:34 35.08244 -82.15348 4227 ft 238 kts 154°
2026-04-25 07:34 35.06801 -82.14410 3990 ft 232 kts 154°
2026-04-25 07:34 35.05400 -82.13501 3755 ft 225 kts 154°
2026-04-25 07:34 35.04037 -82.12616 3531 ft 218 kts 154°
2026-04-25 07:35 35.02633 -82.12099 3290 ft 207 kts 187°
2026-04-25 07:35 35.01391 -82.12776 3144 ft 191 kts 222°
2026-04-25 07:35 35.00356 -82.13670 3038 ft 176 kts 208°
2026-04-25 07:35 34.99316 -82.14372 2897 ft 171 kts 214°
2026-04-25 07:36 34.98337 -82.15144 2683 ft 163 kts 216°
2026-04-25 07:36 34.97391 -82.15879 2493 ft 161 kts 216°
2026-04-25 07:36 34.96450 -82.16603 2275 ft 156 kts 216°
2026-04-25 07:36 34.95580 -82.17270 2065 ft 141 kts 215°
2026-04-25 07:37 34.94766 -82.17896 1899 ft 140 kts 215°
2026-04-25 07:37 34.93934 -82.18537 1719 ft 142 kts 214°
2026-04-25 07:37 34.93095 -82.19179 1523 ft 146 kts 214°
2026-04-25 07:37 34.92238 -82.19831 1371 ft 147 kts 213°
2026-04-25 07:38 34.91367 -82.20498 1148 ft 147 kts 212°
2026-04-25 07:38 34.90507 -82.21162 964 ft 144 kts 212°
2026-04-25 07:38 34.89790 -82.21713 957 ft 69 kts 212°
2026-04-25 07:38 34.89508 -82.21928 960 ft 24 kts 212°
2026-04-25 07:39 34.89389 -82.22018 959 ft 20 kts 206°
2026-04-25 07:39 34.89263 -82.22063 958 ft 19 kts 187°
2026-04-25 07:39 34.89131 -82.22077 958 ft 18 kts 184°
2026-04-25 07:39 34.89014 -82.22037 959 ft 18 kts 133°
2026-04-25 07:40 34.89042 -82.21950 958 ft 14 kts 25°
2026-04-25 07:40 34.89106 -82.21893 955 ft 2 kts 76°
2026-04-25 07:40 34.89101 -82.21874 959 ft 3 kts 114°
2026-04-25 07:40 34.89081 -82.21831 959 ft 7 kts 122°
2026-04-25 07:41 34.89076 -82.21822 956 ft 0 kts 121°